Weather Roundup
Issued by NWS Springfield, MO

Home | Current Version | Previous Version | Text Only | Print | Product List | Glossary On
Versions: 1 2 3 4 5 6 7 8 9 10 11 12 13 14 15 16 17 18 19 20 21 22 23 24 25 26 27 28 29 30 31 32 33 34 35 36 37 38 39 40 41 42 43 44 45 46 47 48 49 50
000
NZUS99 KSGF 040307
HRRSGF

HOURLY WEATHER
NATIONAL WEATHER SERVICE SPRINGFIELD MO
900 PM CST TUE MAR 03 2015

......SGF CWA......

CITY           SKY/WX    TMP DP  RH WIND       PRES   REMARKS
SPRINGFIELD    CLOUDY    42  39  89 SE6       29.86S
JOPLIN         CLOUDY    43  42  97 E3        29.87S FOG
WEST PLAINS    LGT RAIN  44  42  93 N3        29.90R FOG
ROLLA          LGT RAIN  39  37  92 N9        29.88R FOG     WCI  33
OSAGE BEACH    CLOUDY    37  34  87 N3        29.89F
BRANSON        CLOUDY    45  43  93 CALM      29.91R

......SURROUNDING SGF CWA......

CITY           SKY/WX    TMP DP  RH WIND       PRES   REMARKS
CHANUTE        CLOUDY    40  32  73 N10       29.90R WCI  33
PARSONS        CLOUDY    41  38  89 N8        29.92R
COFFEYVILLE    CLOUDY    43  37  79 NE10      29.88F
EMPORIA        CLOUDY    33  23  66 N17G23    29.96R WCI  22
GROVE OK       CLOUDY    45  45 100 SE3       29.88F FOG
ROGERS AR      LGT RAIN  46  46 100 E3        29.90R FOG
SILOAM SPRINGS CLOUDY    46  43  87 CALM      29.91R
HARRISON AR    LGT RAIN  48  48 100 NW5       29.88F FOG
NEAR YELLVILLE CLOUDY    50  46  87 N5        29.88S

......KANSAS AND MISSOURI......

CITY           SKY/WX    TMP DP  RH WIND       PRES   REMARKS
KANSAS CTY INT CLOUDY    32  25  75 N14       29.97S WCI  22
DOWNTOWN KC    CLOUDY    35  26  69 N12       29.98R WCI  27
COLUMBIA       CLOUDY    37  36  96 N12       29.91F WCI  29
SEDALIA        CLOUDY    36  30  79 N12       29.93S WCI  28
ST JOSEPH      CLOUDY    30  21  69 N18       30.02R WCI  18
ST LOUIS       CLOUDY    41  37  86 NW8       29.91R
SPIRIT OF STL  CLOUDY    40  37  89 NW7       29.91R
WICHITA        CLOUDY    36  24  62 N17G23    29.96R WCI  26
TOPEKA         CLOUDY    33  21  61 N9        30.00R WCI  25
OLATHE         CLOUDY    35  27  72 N16G22    29.92F WCI  25

......TENNESSEE......

CITY           SKY/WX    TMP DP  RH WIND       PRES   REMARKS
MEMPHIS        FOG       62  60  93 S9        29.90R VSB 1/4
NASHVILLE      CLOUDY    60  59  96 S9        29.91S

......ARKANSAS.......

CITY           SKY/WX    TMP DP  RH WIND       PRES   REMARKS
FAYETTEVILLE   FOG       46  46 100 CALM      29.90R VSB 3/4
FT SMITH       CLOUDY    44  42  93 CALM      29.90R FOG
LITTLE ROCK    DRZL/FOG  54  52  94 CALM      29.88S VSB 1/8

......OKLAHOMA.......

CITY           SKY/WX    TMP DP  RH WIND       PRES   REMARKS
TULSA          CLOUDY    46  41  82 N7        29.87S
PONCA CITY     LGT RAIN  42  35  76 N12       29.90R
MCALESTER      CLOUDY    48  47  96 CALM      29.87F FOG
OKLAHOMA CITY  CLOUDY    50  40  68 NE5       29.86R

......IOWA............

CITY           SKY/WX    TMP DP  RH WIND       PRES   REMARKS
DES MOINES     MOCLDY    24  14  65 NW18G26   30.03R WCI  10
QUAD CITIES    CLOUDY    30  23  75 W15       29.92R WCI  19

......ILLINOIS........

CITY           SKY/WX    TMP DP  RH WIND       PRES   REMARKS
QUINCY         CLOUDY    34  30  85 NW7       29.94R WCI  28
CHICAGO        CLOUDY    32  25  75 W15       29.83R WCI  22




USA.gov is the U.S. government's official web portal to all federal, state and local government web resources and services.